Location: Lombard
(41.8800°N, 88.0080°W)
Time: 05:49:21
(UTC-05:00)

Vanguard 2 Rocket - Pass Details

Date: 23 February 2024
Orbit: 555 x 3307 km, 32.9° (Epoch: 12 April)

Event Time Altitude Azimuth Distance (km) Brightness Sun altitude
Rises 20:25:38 0° 278° (W) 6,354 12.3 -32.3°
Reaches altitude 10° 20:29:58 10° 270° (W) 5,640 11.7 -33.0°
Maximum altitude 20:45:31 36° 213° (SSW) 4,410 10.3 -35.8°
Enters shadow 20:55:58 23° 170° (S) 5,133 10.3 -37.6°
Drops below altitude 10° 21:02:13 10° 155° (SSE) 5,982 - -38.6°
Sets 21:07:04 0° 148° (SSE) 6,759 - -39.4°
